FW2156 Weather Reports


Display with metric or nautical units.
time (UTC)temp
F
wind
direction
speed
MPH
gust
MPH
rain 1hr
in
rain 24hr
in
rain mn
in
humidity
%
barometer
mb
20260904001034 69 71 2.0 2.0 0.00 0.00 0.10 62 1003.4
20260904000534 69 197 0.0 1.0 0.00 0.00 0.10 60 1003.4
20260904000037 69 164 0.0 1.0 0.00 0.00 0.10 59 1003.4
20260903235534 69 202 0.0 1.0 0.00 0.00 0.10 60 1003.4
20260903235033 69 128 1.0 1.0 0.00 0.00 0.10 59 1003.4
20260903234533 69 4 1.0 2.0 0.00 0.00 0.10 56 1003.4
20260903234032 68 254 1.0 1.0 0.00 0.00 0.10 55 1003.4
20260903233531 68 108 1.0 1.0 0.00 0.00 0.10 57 1003.4
20260903233032 68 168 0.0 0.0 0.00 0.00 0.10 58 1003.4
20260903232529 69 232 0.0 0.0 0.00 0.00 0.10 58 1003.4
20260903232029 69 212 2.0 3.0 0.00 0.00 0.10 58 1003.4
20260903231531 69 105 2.0 2.0 0.00 0.00 0.10 58 1003.4
20260903231030 69 126 2.0 3.0 0.00 0.00 0.10 59 1003.4
20260903230527 68 304 0.0 1.0 0.00 0.00 0.10 56 1003.4
20260903230029 68 221 0.0 1.0 0.00 0.00 0.10 57 1003.4
20260903225529 68 103 1.0 2.0 0.00 0.00 0.10 56 1003.4
20260903225028 68 228 1.0 1.0 0.00 0.00 0.10 59 1003.4
20260903224527 68 195 0.0 1.0 0.00 0.00 0.10 61 1003.4
20260903224026 67 91 2.0 3.0 0.00 0.00 0.10 57 1003.4
20260903223527 67 172 0.0 1.0 0.00 0.00 0.10 61 1003.4
20260903223027 67 119 0.0 1.0 0.00 0.00 0.10 58 1003.0
20260903222526 66 152 1.0 1.0 0.00 0.00 0.10 60 1003.4
20260903222027 66 115 0.0 0.0 0.00 0.00 0.10 61 1003.0
20260903221526 65 229 0.0 1.0 0.00 0.00 0.10 58 1003.0
20260903221026 65 158 1.0 2.0 0.00 0.00 0.10 61 1003.0
20260903220525 64 319 0.0 1.0 0.00 0.00 0.10 60 1003.4
20260903220025 64 232 0.0 1.0 0.00 0.00 0.10 57 1003.4
20260903215523 63 291 1.0 1.0 0.00 0.00 0.10 59 1003.4
20260903215029 63 266 0.0 1.0 0.00 0.00 0.10 62 1003.4
20260903214524 63 246 1.0 1.0 0.00 0.00 0.10 62 1003.4
20260903214023 63 216 0.0 0.0 0.00 0.00 0.10 61 1003.4
20260903213523 63 255 1.0 1.0 0.00 0.00 0.10 63 1003.4
20260903213024 64 198 0.0 0.0 0.00 0.00 0.10 63 1003.4
20260903212523 64 118 0.0 0.0 0.00 0.00 0.10 64 1003.4
20260903212023 64 76 1.0 1.0 0.00 0.00 0.10 66 1003.4
20260903211524 64 128 1.0 2.0 0.00 0.00 0.10 67 1003.4
20260903211023 64 111 2.0 3.0 0.00 0.00 0.10 67 1003.0
20260903210525 64 90 1.0 1.0 0.00 0.00 0.10 67 1003.4
20260903210026 63 153 1.0 1.0 0.00 0.00 0.10 67 1003.4
20260903205522 63 250 0.0 1.0 0.00 0.00 0.10 66 1003.4
20260903205022 62 41 2.0 2.0 0.00 0.00 0.10 65 1003.4
20260903204521 62 76 2.0 2.0 0.00 0.00 0.10 68 1003.4
20260903204018 62 230 1.0 2.0 0.00 0.00 0.10 68 1003.4
20260903203520 62 186 3.0 3.0 0.00 0.00 0.10 69 1003.0
20260903203019 61 15 1.0 2.0 0.00 0.00 0.10 71 1003.0
20260903202518 61 267 2.0 2.0 0.00 0.00 0.10 70 1003.0
20260903202018 61 95 1.0 2.0 0.00 0.00 0.10 72 1003.0
20260903201517 60 110 0.0 1.0 0.00 0.00 0.10 73 1003.0
20260903201017 60 247 1.0 2.0 0.00 0.00 0.10 75 1003.0
20260903200518 60 27 2.0 2.0 0.00 0.00 0.10 75 1003.0
20260903200019 59 237 2.0 3.0 0.00 0.00 0.10 75 1003.0
20260903195518 59 217 0.0 1.0 0.00 0.00 0.10 78 1003.0
20260903195015 58 272 3.0 5.0 0.00 0.00 0.10 79 1003.0
20260903194516 58 115 2.0 2.0 0.00 0.00 0.10 82 1003.0
20260903194015 57 248 1.0 2.0 0.00 0.00 0.10 82 1003.0
20260903193514 57 52 3.0 5.0 0.00 0.00 0.10 84 1003.0
20260903193019 56 354 3.0 6.0 0.00 0.00 0.10 86 1003.0
20260903192514 56 113 1.0 1.0 0.00 0.00 0.10 89 1003.0
20260903192014 55 244 1.0 1.0 0.00 0.00 0.10 89 1003.0
20260903191513 55 221 2.0 2.0 0.00 0.00 0.10 92 1003.0
20260903190939 54 341 2.0 5.0 0.00 0.00 0.10 93 1003.4
20260903190439 54 333 3.0 3.0 0.00 0.00 0.10 94 1003.0
20260903185940 54 10 1.0 2.0 0.00 0.00 0.10 94 1003.4
20260903185440 54 145 1.0 2.0 0.00 0.00 0.10 94 1003.4
20260903184940 55 200 0.0 1.0 0.00 0.00 0.10 94 1003.4
20260903184441 55 66 1.0 2.0 0.00 0.00 0.10 93 1003.4
20260903183942 56 230 0.0 1.0 0.00 0.00 0.09 92 1003.4
20260903183438 57 273 0.0 1.0 0.00 0.00 0.08 90 1003.4
20260903182936 57 296 1.0 2.0 0.00 0.00 0.06 87 1003.4
20260903182443 58 314 1.0 2.0 0.00 0.00 0.03 86 1003.4
20260903181939 59 233 1.0 2.0 0.00 0.00 0.02 83 1003.4
20260903181442 60 247 1.0 1.0 0.00 0.00 0.01 79 1003.4
20260903180940 60 220 1.0 2.0 0.00 0.00 0.00 72 1003.0
20260903180443 60 315 4.0 5.0 0.00 0.00 0.00 68 1003.4
20260903175943 61 266 3.0 3.0 0.00 0.00 0.00 66 1003.0
20260903175414 61 266 4.0 7.0 0.00 0.00 0.00 66 1003.0
20260903174910 61 278 4.0 7.0 0.00 0.00 0.00 66 1003.0
20260903174413 61 312 2.0 2.0 0.00 0.00 0.00 72 1003.0
20260903173912 61 234 2.0 3.0 0.00 0.00 0.00 74 1003.0
20260903173415 61 269 1.0 2.0 0.00 0.00 0.00 74 1003.0
20260903172913 61 295 1.0 2.0 0.00 0.00 0.00 75 1002.7
20260903172413 61 303 1.0 2.0 0.00 0.00 0.00 75 1002.7
20260903171843 61 258 4.0 5.0 0.00 0.00 0.00 75 1002.7
20260903171344 61 345 4.0 6.0 0.00 0.00 0.00 75 1002.4
20260903170842 62 295 2.0 2.0 0.00 0.00 0.00 75 1002.4
20260903170343 62 234 2.0 2.0 0.00 0.00 0.00 74 1002.4
20260903165840 62 212 3.0 3.0 0.00 0.00 0.00 74 1002.4
20260903165342 62 257 2.0 2.0 0.00 0.00 0.00 74 1002.4
20260903164841 62 216 1.0 1.0 0.00 0.00 0.00 74 1002.4
20260903164341 62 258 1.0 2.0 0.00 0.00 0.00 73 1002.4
20260903163842 62 235 0.0 1.0 0.00 0.00 0.00 73 1002.0
20260903163341 62 308 2.0 3.0 0.00 0.00 0.00 73 1002.4
20260903162839 63 239 1.0 1.0 0.00 0.00 0.00 73 1002.4
20260903162340 63 273 1.0 2.0 0.00 0.00 0.00 72 1002.0
20260903161837 63 142 1.0 2.0 0.00 0.00 0.00 70 1002.0
20260903161337 62 237 1.0 2.0 0.00 0.00 0.00 68 1001.7
20260903160838 62 234 4.0 6.0 0.00 0.00 0.00 66 1001.7
20260903160338 62 205 0.0 1.0 0.00 0.00 0.00 66 1002.0
20260903155837 61 302 1.0 2.0 0.00 0.00 0.00 65 1001.7
20260903155338 61 278 2.0 2.0 0.00 0.00 0.00 65 1001.7
20260903154836 60 250 1.0 2.0 0.00 0.00 0.00 68 1001.7
20260903154335 60 229 1.0 1.0 0.00 0.00 0.00 71 1001.7
20260903153836 60 272 1.0 1.0 0.00 0.00 0.00 71 1001.7
20260903153335 60 265 1.0 2.0 0.00 0.00 0.00 71 1001.7
20260903152835 60 284 2.0 3.0 0.00 0.00 0.00 71 1001.7
20260903152334 60 260 0.0 1.0 0.00 0.00 0.00 71 1001.7
20260903151834 60 30 0.0 0.0 0.00 0.00 0.00 70 1001.7
20260903151334 60 257 1.0 1.0 0.00 0.00 0.00 70 1001.4
20260903150833 60 274 2.0 2.0 0.00 0.00 0.00 69 1001.4
20260903150333 60 239 1.0 1.0 0.00 0.00 0.00 68 1001.4
20260903145841 60 358 2.0 5.0 0.00 0.00 0.00 68 1001.4
20260903145341 60 285 3.0 5.0 0.00 0.00 0.00 68 1001.4
20260903144838 60 273 2.0 2.0 0.00 0.00 0.00 68 1001.4
20260903144331 60 262 2.0 2.0 0.00 0.00 0.00 68 1001.4
20260903143831 60 191 1.0 3.0 0.00 0.00 0.00 68 1001.4
20260903143330 59 212 1.0 2.0 0.00 0.00 0.00 67 1001.0
20260903142831 59 347 5.0 6.0 0.00 0.00 0.00 67 1001.0
20260903142329 59 273 4.0 6.0 0.00 0.00 0.00 67 1001.4
20260903141831 59 329 2.0 2.0 0.00 0.00 0.00 67 1001.0
20260903141329 59 248 2.0 2.0 0.00 0.00 0.00 67 1001.4
20260903140830 59 281 2.0 2.0 0.00 0.00 0.00 67 1001.0
20260903140330 59 295 2.0 2.0 0.00 0.00 0.00 67 1001.0
20260903135830 59 87 1.0 2.0 0.00 0.00 0.00 67 1001.0
20260903135328 59 333 1.0 1.0 0.00 0.00 0.00 67 1001.4
20260903134827 59 274 2.0 3.0 0.00 0.00 0.00 67 1001.0
20260903134328 59 124 0.0 1.0 0.00 0.00 0.00 67 1001.0
20260903133829 59 255 1.0 1.0 0.00 0.00 0.00 67 1001.0
20260903133327 59 216 2.0 3.0 0.00 0.00 0.00 67 1001.0
20260903132828 59 267 0.0 0.0 0.00 0.00 0.00 68 1001.0
20260903132325 59 229 0.0 1.0 0.00 0.00 0.00 68 1001.0
20260903131826 59 89 0.0 1.0 0.00 0.00 0.00 68 1001.0
20260903131324 59 200 1.0 2.0 0.00 0.00 0.00 68 1001.0
20260903130825 59 285 0.0 1.0 0.00 0.00 0.00 68 1001.0
20260903130325 60 267 1.0 1.0 0.00 0.00 0.00 68 1001.0
20260903125824 60 274 0.0 0.0 0.00 0.00 0.00 68 1001.0
20260903125324 60 65 2.0 3.0 0.00 0.00 0.00 67 1000.7
20260903124826 61 164 0.0 1.0 0.00 0.00 0.00 66 1000.7
20260903124323 61 11 1.0 2.0 0.00 0.00 0.00 64 1000.7
20260903123823 61 223 3.0 5.0 0.00 0.00 0.00 63 1000.3
20260903123323 61 281 1.0 2.0 0.00 0.00 0.00 63 1000.3
20260903122823 61 252 3.0 5.0 0.00 0.00 0.00 63 1000.3
20260903122323 61 270 2.0 2.0 0.00 0.00 0.00 62 1000.3
20260903121822 61 270 3.0 3.0 0.00 0.00 0.00 62 1000.3
20260903121322 61 261 2.0 3.0 0.00 0.00 0.00 62 1000.3
20260903120820 60 322 2.0 2.0 0.00 0.00 0.00 62 1000.3
20260903120323 60 319 4.0 5.0 0.00 0.00 0.00 63 1000.3
20260903115819 60 265 2.0 3.0 0.00 0.00 0.00 63 1000.3
20260903115319 60 266 3.0 5.0 0.00 0.00 0.00 64 1000.3
20260903114819 60 258 5.0 8.0 0.00 0.00 0.00 64 1000.3
20260903114319 60 262 5.0 6.0 0.00 0.00 0.00 66 1000.3
20260903113819 60 322 3.0 6.0 0.00 0.00 0.00 66 1000.3
20260903113321 60 343 4.0 5.0 0.00 0.00 0.00 66 1000.3
20260903112823 60 159 4.0 6.0 0.00 0.00 0.00 65 1000.3
20260903112317 60 243 5.0 8.0 0.00 0.00 0.00 66 1000.3
20260903111818 60 230 3.0 5.0 0.00 0.00 0.00 66 1000.7
20260903111317 59 252 4.0 7.0 0.00 0.00 0.00 66 1000.3
20260903110817 59 326 5.0 7.0 0.00 0.00 0.00 66 1000.7
20260903110317 59 233 5.0 6.0 0.00 0.00 0.00 67 1000.7
20260903105818 59 268 3.0 5.0 0.00 0.00 0.00 67 1000.7
20260903105315 59 258 5.0 7.0 0.00 0.00 0.00 67 1000.7
20260903104816 60 266 4.0 5.0 0.00 0.00 0.00 70 1000.3
20260903104315 60 298 2.0 3.0 0.00 0.00 0.00 71 1000.3
20260903103817 60 200 1.0 2.0 0.00 0.00 0.00 72 1000.3
20260903103315 60 252 1.0 2.0 0.00 0.00 0.00 71 1000.3
20260903102813 61 333 5.0 6.0 0.00 0.00 0.00 66 1000.7
20260903102312 61 294 6.0 8.0 0.00 0.00 0.00 65 1000.7
20260903101815 61 286 3.0 6.0 0.00 0.00 0.00 64 1000.3
20260903101312 61 325 1.0 2.0 0.00 0.00 0.00 63 1000.7
20260903100813 61 318 2.0 3.0 0.00 0.00 0.00 63 1000.3
20260903100312 61 246 5.0 7.0 0.00 0.00 0.00 63 1000.3
20260903095811 60 319 5.0 7.0 0.00 0.00 0.00 63 1000.3
20260903095313 60 324 5.0 8.0 0.00 0.00 0.00 63 1000.0
20260903094810 60 350 6.0 9.0 0.00 0.00 0.00 64 1000.0
20260903094312 60 284 3.0 6.0 0.00 0.00 0.00 64 1000.3
20260903093813 60 210 5.0 7.0 0.00 0.00 0.00 65 1000.3
20260903093312 60 273 4.0 6.0 0.00 0.00 0.00 66 1000.3
20260903092811 60 260 3.0 3.0 0.00 0.00 0.00 66 1000.3
20260903092310 60 282 6.0 10.0 0.00 0.00 0.00 66 1000.3
20260903091811 59 287 9.0 10.0 0.00 0.00 0.00 66 1000.3
20260903091312 59 290 6.0 8.0 0.00 0.00 0.00 66 1000.3
20260903090811 59 274 7.0 10.0 0.00 0.00 0.00 66 1000.3
20260903090310 59 250 3.0 5.0 0.00 0.00 0.00 67 1000.3
20260903085819 59 301 8.0 9.0 0.00 0.00 0.00 68 1000.3
20260903085310 59 5 3.0 5.0 0.00 0.00 0.00 68 1000.3
20260903084813 59 289 5.0 8.0 0.00 0.00 0.00 68 1000.3
20260903084312 59 238 3.0 3.0 0.00 0.00 0.00 68 1000.3
20260903083815 59 356 5.0 8.0 0.00 0.00 0.00 68 1000.3
20260903083310 58 262 2.0 3.0 0.00 0.00 0.00 68 1000.0
20260903082812 58 290 6.0 13.0 0.00 0.00 0.00 68 1000.0
20260903082311 58 326 6.0 9.0 0.00 0.00 0.00 69 1000.3
20260903081743 58 277 3.0 5.0 0.00 0.00 0.00 70 1000.3
20260903081240 58 294 6.0 8.0 0.00 0.00 0.00 71 1000.3
20260903080740 59 293 5.0 6.0 0.00 0.00 0.00 71 1000.3
20260903080238 59 268 3.0 5.0 0.00 0.00 0.00 71 1000.3
20260903075738 59 273 3.0 5.0 0.00 0.00 0.00 70 1000.3
20260903075238 59 26 5.0 8.0 0.00 0.00 0.00 70 1000.3
20260903074740 60 285 5.0 7.0 0.00 0.00 0.00 69 1000.3
20260903074237 60 271 5.0 7.0 0.00 0.00 0.00 68 1000.3
20260903073737 60 225 5.0 6.0 0.00 0.00 0.00 68 1000.3
20260903073236 60 297 1.0 2.0 0.00 0.00 0.00 67 1000.3
20260903072741 60 254 2.0 3.0 0.00 0.00 0.00 65 1000.3
20260903072240 60 288 3.0 3.0 0.00 0.00 0.00 66 1000.3
20260903071739 60 297 5.0 6.0 0.00 0.00 0.00 67 1000.3
20260903071241 60 307 4.0 5.0 0.00 0.00 0.00 67 1000.0
20260903070739 60 281 4.0 5.0 0.00 0.00 0.00 66 1000.3
20260903070239 60 336 3.0 3.0 0.00 0.00 0.00 65 1000.3
20260903065738 61 252 3.0 3.0 0.00 0.00 0.00 66 1000.3
20260903065240 61 273 3.0 3.0 0.00 0.00 0.00 66 1000.3
20260903064739 61 273 4.0 6.0 0.00 0.00 0.00 65 1000.3
20260903064238 60 244 2.0 3.0 0.00 0.00 0.00 65 1000.3
20260903063737 60 264 4.0 5.0 0.00 0.00 0.00 65 1000.3
20260903063237 60 343 5.0 7.0 0.00 0.00 0.00 65 1000.3
20260903062738 60 285 3.0 6.0 0.00 0.00 0.00 66 1000.3
20260903062238 60 304 5.0 8.0 0.00 0.00 0.00 66 1000.3
20260903061736 59 301 5.0 7.0 0.00 0.00 0.00 68 1000.3
20260903061235 59 349 3.0 5.0 0.00 0.00 0.00 70 1000.3
20260903060736 59 273 3.0 3.0 0.00 0.00 0.00 72 1000.3
20260903060237 60 219 0.0 1.0 0.00 0.00 0.00 73 1000.3
20260903055734 60 216 0.0 0.0 0.00 0.00 0.00 73 1000.3
20260903055235 60 224 1.0 1.0 0.00 0.00 0.00 73 1000.3
20260903054733 60 244 1.0 1.0 0.00 0.00 0.00 72 1000.3
20260903054235 60 227 0.0 0.0 0.00 0.00 0.00 72 1000.3
20260903053736 60 221 0.0 0.0 0.00 0.00 0.00 71 1000.7
20260903053233 60 230 0.0 0.0 0.00 0.00 0.00 71 1000.7
20260903052733 60 237 1.0 1.0 0.00 0.00 0.00 71 1000.7
20260903052234 60 257 1.0 2.0 0.00 0.00 0.00 70 1000.7
20260903051734 60 240 1.0 1.0 0.00 0.00 0.00 70 1000.7
20260903051234 61 234 0.0 0.0 0.00 0.00 0.00 70 1000.7
20260903050733 61 219 0.0 0.0 0.00 0.00 0.00 70 1001.0
20260903050232 61 219 0.0 0.0 0.00 0.00 0.00 70 1001.0
20260903045732 61 269 0.0 1.0 0.00 0.00 0.00 69 1000.7
20260903045231 61 228 0.0 0.0 0.00 0.00 0.00 69 1000.7
20260903044730 61 262 0.0 1.0 0.00 0.00 0.00 69 1000.7
20260903044230 61 213 0.0 0.0 0.00 0.00 0.00 69 1001.0
20260903043732 62 279 1.0 1.0 0.00 0.00 0.00 69 1001.0
20260903043230 62 216 1.0 1.0 0.00 0.00 0.00 69 1001.0
20260903042730 62 278 0.0 1.0 0.00 0.00 0.00 69 1001.0
20260903042230 62 270 1.0 1.0 0.00 0.00 0.00 69 1001.4
20260903041727 62 257 0.0 1.0 0.00 0.00 0.00 68 1001.4
20260903041228 62 221 0.0 0.0 0.00 0.00 0.00 69 1001.7
20260903040728 62 218 0.0 0.0 0.00 0.00 0.00 69 1001.4
20260903040228 62 237 0.0 0.0 0.00 0.00 0.00 69 1001.4
20260903035726 63 259 0.0 1.0 0.00 0.00 0.00 69 1001.7
20260903035227 63 251 3.0 3.0 0.00 0.00 0.00 69 1001.7
20260903034727 63 226 1.0 1.0 0.00 0.00 0.00 70 1001.7
20260903034226 63 257 0.0 1.0 0.00 0.00 0.00 69 1002.0
20260903033726 63 255 0.0 1.0 0.00 0.00 0.00 69 1002.0
20260903033226 64 229 0.0 1.0 0.00 0.00 0.00 69 1002.0
20260903032725 64 224 0.0 0.0 0.00 0.00 0.00 69 1002.0
20260903032225 64 242 0.0 1.0 0.00 0.00 0.00 68 1002.4
20260903031724 64 256 0.0 0.0 0.00 0.00 0.00 67 1002.4
20260903031224 64 221 0.0 0.0 0.00 0.00 0.00 67 1002.4
20260903030723 65 222 0.0 1.0 0.00 0.00 0.00 66 1002.4
20260903030224 65 235 0.0 0.0 0.00 0.00 0.00 66 1002.7
20260903025724 65 222 0.0 0.0 0.00 0.00 0.00 65 1002.4
20260903025223 65 268 1.0 1.0 0.00 0.00 0.00 65 1002.4
20260903024724 66 202 1.0 2.0 0.00 0.00 0.00 65 1002.4
20260903024224 66 199 0.0 0.0 0.00 0.00 0.00 64 1002.4
20260903023721 66 181 0.0 0.0 0.00 0.00 0.00 64 1002.4
20260903023222 66 179 0.0 0.0 0.00 0.00 0.00 64 1002.4
20260903022721 66 167 0.0 1.0 0.00 0.00 0.00 63 1002.4
20260903022222 67 157 0.0 0.0 0.00 0.00 0.00 63 1002.4
20260903021722 67 81 3.0 3.0 0.00 0.00 0.00 63 1002.4
20260903021220 68 158 0.0 1.0 0.00 0.00 0.00 62 1002.7
20260903020720 68 185 0.0 1.0 0.00 0.00 0.00 62 1002.4
20260903020220 69 130 1.0 1.0 0.00 0.00 0.00 61 1002.7
20260903015722 69 267 1.0 2.0 0.00 0.00 0.00 60 1002.4
20260903015219 70 117 3.0 5.0 0.00 0.00 0.00 59 1002.7
20260903014720 70 111 3.0 5.0 0.00 0.00 0.00 56 1002.4
20260903014219 70 149 2.0 2.0 0.00 0.00 0.00 51 1002.4
20260903013719 71 134 1.0 2.0 0.00 0.00 0.00 51 1002.4
20260903013219 71 168 0.0 0.0 0.00 0.00 0.00 51 1002.4
20260903012719 71 142 0.0 0.0 0.00 0.00 0.00 51 1002.4
20260903012217 71 102 2.0 3.0 0.00 0.00 0.00 50 1002.4
20260903011717 72 141 0.0 1.0 0.00 0.00 0.00 50 1002.0
20260903011217 72 144 0.0 1.0 0.00 0.00 0.00 50 1002.0
20260903010716 72 130 1.0 1.0 0.00 0.00 0.00 49 1002.4
20260903010216 72 119 2.0 2.0 0.00 0.00 0.00 48 1002.4
20260903005715 72 122 0.0 1.0 0.00 0.00 0.00 48 1002.4
20260903005216 72 142 1.0 1.0 0.00 0.00 0.00 48 1002.4
20260903004717 72 160 0.0 1.0 0.00 0.00 0.00 47 1002.4
20260903004219 72 181 0.0 0.0 0.00 0.00 0.00 47 1002.0
20260903003716 72 141 3.0 3.0 0.00 0.00 0.00 46 1002.0
20260903003215 73 161 1.0 1.0 0.00 0.00 0.00 48 1002.4
20260903002714 73 127 0.0 1.0 0.00 0.00 0.00 48 1002.4
20260903002214 73 86 1.0 2.0 0.00 0.00 0.00 47 1002.4
20260903001714 73 124 2.0 2.0 0.00 0.00 0.00 47 1002.4
20260903001214 73 41 0.0 1.0 0.00 0.00 0.00 47 1002.4